Skip Page Navigation
NASA JPL Caltech
NASA Logo - Jet Propulsion Laboratory + View the NASA Portal
+ Center for Near-Earth Object Studies
JPL Home Earth Solar System Stars & Galaxies Technology
JPL Solar System Dynamics
BODIES ORBITS EPHEMERIDES TOOLS PHYSICAL DATA DISCOVERY FAQ SITE MAP
JPL Small-Body Database Browser
Search: [ help ]  
67308 Oveges (2000 HD)
Classification: Main-belt Asteroid          SPK-ID: 2067308
Ephemeris | Orbit Diagram | Orbital Elements | Mission Design | Physical Parameters | Discovery Circumstances ]

[ show orbit diagram ]
Orbital Elements at Epoch 2459200.5 (2020-Dec-17.0) TDB
Reference: JPL 39 (heliocentric ecliptic J2000)
 Element Value Uncertainty (1-sigma)   Units 
e .1000450987719381 3.513e-08  
a 2.997066719651227 1.5205e-08 au
q 2.697224883657631 1.0373e-07 au
i 9.590348132085566 3.7783e-06 deg
node 263.4521308118869 2.3828e-05 deg
peri 138.8075873949526 3.1616e-05 deg
M 84.96660030540426 2.0243e-05 deg
tp 2458753.210416517363
(2019-Sep-26.71041652)
0.00010618 TDB
period 1895.147616533593
5.19
1.4422e-05
3.949e-08
d
yr
n .1899588173814526 1.4455e-09 deg/d
Q 3.296908555644822 1.6726e-08 au
  Orbit Determination Parameters
   # obs. used (total)      1744  
   data-arc span      8219 days (22.50 yr)  
   first obs. used      1998-09-20  
   last obs. used      2021-03-22  
   planetary ephem.      DE441  
   SB-pert. ephem.      SB441-N16  
   condition code      0  
   norm. resid. RMS      .44687  
   source      ORB  
   producer      Otto Matic  
   solution date      2021-May-04 07:04:00  

Additional Information
 Earth MOID = 1.71464 au 
 Jupiter MOID = 2.0694 au 
 T_jup = 3.225 
[ show covariance matrix ]

Ephemeris | Orbit Diagram | Orbital Elements | Mission Design | Physical Parameters | Discovery Circumstances ]

Physical Parameter Table
Parameter Symbol Value Units Sigma Reference Notes
absolute magnitude H 13.42   n/a MPCxxxxx  
diameter diameter 7.410 km 0.127 urn:nasa:pds:neowise_diameters_albedos::2.0[mainbelt] (http://adsabs.harvard.edu/abs/2011ApJ...741...68M)  
geometric albedo albedo 0.185   0.020 urn:nasa:pds:neowise_diameters_albedos::2.0[mainbelt] (http://adsabs.harvard.edu/abs/2011ApJ...741...68M)  

67308 Öveges           Discovered 2000 Apr. 21 by K. Sárneczky and L. Kiss at Piszkéstető.
József Öveges (1895-1979) was a teacher of physics who made physics popular to millions of people through his radio and television programs in Hungary. His lectures were unforgettable.
NOTE: some special characters may not display properly (any characters within {} are an attempt to place the proper accent above a character)
Reference: 20050407/MPCPages.arcLast Updated: 2005-04-15

Alternate Designations
 2000 HD = 1999 AB38 = 2000 AA125 
Ephemeris | Orbit Diagram | Orbital Elements | Mission Design | Physical Parameters | Discovery Circumstances ]
ABOUT SSD CREDITS/AWARDS PRIVACY/COPYRIGHT GLOSSARY LINKS
FirstGov 2021-Jun-24 08:33 UT
(server date/time)  
NASA Home Page
Site Manager:   Ryan S. Park
Webmaster  Alan B. Chamberlin